Location: Mason Neck State Park
(38.6428°N, 77.1981°W)
Time: 04:42:15
(UTC-04:00)

Daily predictions for brighter satellites

Satellite Brightness Start Highest point End
(mag) Time Altitude Azimuth Time Altitude Azimuth Time Altitude Azimuth
Lacrosse 5 4.3 03:38:47 18° ENE 03:38:47 18° ENE 03:40:24 10° ENE
Cosmos 2237 Rocket 4.4 03:31:42 10° N 03:36:01 22° NE 03:40:18 10° ESE
ATLAS 5 CENTAUR R/B 4.2 03:37:21 13° N 03:41:35 27° NE 03:46:55 10° ESE
NOSS 3-4 (A) 4.1 04:00:48 53° E 04:00:48 53° E 04:06:24 10° NE
NOSS 3-4 (C) 4.1 04:00:52 53° E 04:00:52 53° E 04:06:30 10° NE
Gbstr 26 Del rocket 4.4 04:03:06 76° NE 04:03:07 76° NE 04:11:12 10° ESE
Cosmos 2344 3.5 04:06:57 82° NW 04:06:57 82° NW 04:15:30 10° NNE
Cosmos 2227 Rocket 3.1 04:07:44 45° E 04:07:44 45° E 04:12:37 10° NE
CZ-2D R/B 3.7 04:05:32 10° N 04:07:50 27° N 04:07:50 27° N
FALCON 9 R/B 4.4 04:10:55 19° SSE 04:13:19 23° SE 04:23:29 10° E
SL-16 R/B 4.3 04:20:48 20° NNW 04:20:48 20° NNW 04:22:32 10° NNW
Cosmos 2297 Rocket 3.2 04:15:57 38° ESE 04:16:38 39° ESE 04:21:51 10° NE
ATLAS 2AS CENTAUR R/B 4.3 04:21:15 24° NW 04:21:32 25° NW 04:27:56 10° NNE
NOSS 0 Rocket 3.9 04:24:08 10° NNW 04:30:24 80° ENE 04:36:38 10° SSE
MOS 1-B 4.5 04:27:17 10° N 04:32:12 63° NNW 04:32:12 63° NNW
IRS-1C Rocket 4.4 04:29:44 10° NNE 04:34:59 64° ESE 04:35:36 59° SE
Resurs 1-4 Rocket 3.6 04:31:39 10° N 04:34:08 26° NNW 04:34:08 26° NNW
Cosmos 1605 Rocket 3.8 04:31:04 10° N 04:37:16 90° NE 04:39:10 48° S
BREEZE-M DEB (TANK) 3.5 04:41:56 66° ENE 04:41:56 66° ENE 04:44:24 10° ENE
PAYLOAD B 4.4 04:41:28 10° NNE 04:46:58 69° ESE 04:49:09 37° S
Cosmos 2082 3.5 04:46:49 79° SW 04:47:10 86° WNW 04:52:49 10° NNE
Cosmos 1025 Rocket 3.2 04:51:03 69° ENE 04:51:03 69° ENE 04:55:05 10° NNE
NOSS 3-2 (A) 3.9 04:43:11 10° NW 04:50:47 81° WSW 04:58:55 10° SSE
Lacrosse 5 rocket 3.8 04:53:31 15° NNW 04:53:31 15° NNW 04:55:33 10° N
CZ-4B R/B 3.3 04:48:28 10° NNE 04:52:52 69° ESE 04:53:23 62° SE
Cosmos 923 Rocket 4.2 04:47:58 10° NNW 04:54:42 50° S 04:58:39 10° S
Cosmos 2333 Rocket 2.0 04:49:55 10° NNW 04:55:37 70° WSW 05:01:14 10° SSE
BREEZE-M DEB (TANK) 4.4 04:58:54 14° N 04:59:32 14° NNE 05:01:11 10° ENE
Okean O Rocket 1.8 04:56:42 10° N 05:00:24 57° NNW 05:00:24 57° NNW
DELTA 2 R/B (1) 3.8 05:01:53 50° SSW 05:02:56 60° SSE 05:08:25 10° E
Okean 2 4.0 05:03:14 25° SSE 05:05:24 56° E 05:09:29 10° NNE
Cosmos 1606 Rocket 3.6 05:02:15 10° N 05:06:38 75° E 05:10:57 10° SSE
Meteor 1-19 Rocket 4.1 05:04:57 41° SSW 05:06:57 73° W 05:12:34 10° N
USA 215 3.9 05:03:56 10° S 05:08:44 32° SW 05:08:44 32° SW
Cosmos 2061 Rocket 4.4 05:05:30 10° N 05:11:47 66° E 05:18:06 10° SSE
Delta 2 Rocket 3.4 05:13:34 52° SSE 05:13:34 52° SSE 05:16:47 10° ESE
Cosmos 1898 Rocket 4.0 05:09:18 13° S 05:13:56 62° ESE 05:19:10 10° NNE
Cosmos 2100 Rocket 4.1 05:08:59 10° N 05:15:15 78° E 05:21:33 10° S
Cosmos 1802 Rocket 4.5 05:09:15 10° N 05:15:20 61° E 05:21:23 10° SSE
Cosmos 1726 Rocket 3.5 05:13:17 10° N 05:17:42 83° E 05:22:02 10° S
CZ-2C R/B 3.7 05:17:20 51° SW 05:17:49 53° W 05:22:21 10° NNW
CZ-4B R/B 3.1 05:12:30 10° N 05:17:52 67° WNW 05:20:48 28° SSW
Lacrosse 5 2.3 05:18:00 40° WNW 05:18:49 43° NW 05:23:39 10° NNE
Cosmos 2237 Rocket 2.2 05:14:55 10° NNW 05:20:23 53° WSW 05:25:49 10° S
Cosmos 1666 2.6 05:16:32 10° N 05:20:26 85° E 05:24:14 10° S
Meteor 2-4 Rocket 3.7 05:17:26 15° SSW 05:22:16 75° W 05:28:13 10° N
Tiangong 1 1.8 05:23:36 41° N 05:23:36 41° N 05:26:18 10° ENE
Meteor 1-23 Rocket 4.1 05:21:05 12° SSW 05:26:23 76° W 05:32:05 10° N
ATLAS 5 CENTAUR R/B 2.4 05:20:40 10° NW 05:26:41 61° WSW 05:33:06 10° SSE
CENTAUR R/B 3.9 05:19:24 10° NNW 05:27:00 51° NE 05:35:02 10° SE
Cosmos 1892 Rocket 3.5 05:24:41 23° SSW 05:27:25 72° W 05:31:55 10° N
Cosmos 1937 Rocket 4.1 05:22:55 10° S 05:28:01 58° ESE 05:33:12 10° NNE
Cosmos 292 Rocket 3.7 05:23:08 10° NNW 05:28:02 88° WSW 05:32:53 10° SSE
ADEOS Rocket 3.2 05:21:18 10° N 05:28:29 79° WNW 05:34:53 10° SSW
NOSS 3-2 (C) 4.0 05:21:14 10° NW 05:28:41 59° WSW 05:36:37 10° SSE
Cosmos 1980 4.1 05:28:54 10° NW 05:34:03 36° WSW 05:39:11 10° S
ADEOS II 2.1 05:28:49 10° NNE 05:34:06 87° ESE 05:39:22 10° SSW
PSLV R/B 3.4 05:31:39 10° N 05:35:59 72° WNW 05:39:59 11° SSW
SL-16 R/B 2.1 05:34:23 10° NNW 05:40:07 85° WSW 05:45:47 10° SSE
ASTRO F (AKARI) 4.2 05:37:56 10° S 05:41:00 58° WSW 05:44:12 10° NNW
NOSS 2-2 (E) 4.2 05:38:40 10° SSW 05:42:38 53° ESE 05:47:10 10° NE
Meteor 2-9 Rocket 4.2 05:37:41 10° NNW 05:43:16 63° W 05:48:58 10° S
Cosmos 1000 Rocket 4.5 05:39:30 10° SSW 05:45:47 67° W 05:52:06 10° N
Cosmos 2112 Rocket 4.5 05:41:41 10° NW 05:46:29 36° W 05:51:14 10° SSW
RESURS DK-1 3.5 05:46:00 25° WNW 05:46:31 25° WNW 05:50:00 10° N
Meteor PRIRODA 3.5 05:43:25 10° N 05:47:11 78° WNW 05:50:52 10° SSW
Cosmos 2228 2.9 05:45:03 10° N 05:49:28 82° W 05:53:49 10° S
Cosmos 2016 Rocket 4.0 05:44:34 10° N 05:50:56 84° W 05:57:12 10° S
Cosmos 1680 Rocket 4.3 05:46:37 10° NW 05:51:02 28° W 05:55:25 10° SSW
Cosmos 2227 Rocket 3.3 05:49:36 21° W 05:51:28 25° NW 05:56:04 10° N
OPS 6432 4.2 05:49:35 18° SSW 05:52:05 87° WNW 05:55:11 10° NNE
Cosmos 1346 Rocket 3.6 05:51:14 25° WSW 05:52:21 30° WNW 05:55:54 10° NNW
USA 129 1.9 05:53:29 10° SSE 05:55:27 60° ENE 05:57:17 10° N
Cosmos 2173 Rocket 4.0 05:50:40 10° NNW 05:56:34 53° W 06:02:29 10° SSW
SL-08 R/B 4.5 05:52:24 10° N 05:58:40 87° W 06:05:00 10° S
Cosmos 2297 Rocket 3.1 05:57:49 18° WSW 06:00:45 28° WNW 06:05:35 10° N
OTV 4 2.0 06:01:46 18° SW 06:02:11 18° SSW 06:04:11 10° SSE
Okean-O 2.9 06:00:06 10° N 06:04:19 44° WNW 06:08:32 10° SW
Cosmos 1459 Rocket 4.3 05:58:50 10° NNW 06:04:51 45° W 06:10:47 10° SSW
Cosmos 2123 Rocket 3.9 06:00:25 10° S 06:06:35 83° W 06:12:48 10° N
Cosmos 2058 Rocket 3.7 06:04:32 10° NNW 06:08:27 33° W 06:12:21 10° SSW
SL-24 R/B 4.2 06:09:52 10° NNE 06:14:12 72° E 06:18:02 10° S
CZ-4B R/B 3.8 06:11:13 10° N 06:15:05 60° WNW 06:18:47 10° SSW
Thor Agena Rocket 4.5 06:14:13 10° SSW 06:18:38 27° W 06:23:05 10° NW
Aureole 2 Rocket 2.8 06:16:25 10° NW 06:19:36 36° WSW 06:22:30 10° S
COSMO-SKYMED 1 2.9 06:15:52 10° SSE 06:20:10 70° ENE 06:24:30 10° N
EXPRESS MD2 4.0 06:16:55 10° NW 06:20:30 77° NE 06:27:55 10° ESE
Cosmos 1603 3.8 06:21:40 10° NNW 06:27:26 88° ENE 06:33:06 10° SSE
Cosmos 990 Rocket 4.3 06:26:32 10° SW 06:31:36 48° WNW 06:36:41 10° N
SeaSat 1 3.7 06:27:26 10° SE 06:32:07 46° ENE 06:36:50 10° NNW
Meteor 1-31 Rocket 3.5 06:29:07 10° N 06:32:39 33° WNW 06:36:11 10° SW
Ariane Rocket 3.1 06:29:06 10° NNE 06:34:14 89° W 06:39:21 10° SSW
